Date,TemperatureHighF,TemperatureAvgF,TemperatureLowF,DewpointHighF,DewpointAvgF,DewpointLowF,HumidityHigh,HumidityAvg,HumidityLow,PressureMaxIn,PressureMinIn,WindSpeedMaxMPH,WindSpeedAvgMPH,GustSpeedMaxMPH,PrecipitationSumIn
2013-9-1,90.9,78.0,70.3,77.3,66.6,53.3,88,71,30,29.90,29.84,0,0,0,0.00
2013-9-2,84.7,76.8,71.1,76.2,69.5,61.8,90,79,50,29.87,29.72,0,0,0,0.00
2013-9-3,80.8,72.5,66.0,76.4,60.7,45.7,88,69,34,29.84,29.72,0,0,0,0.00
2013-9-4,84.0,71.4,63.5,59.5,45.5,35.2,72,43,21,29.93,29.84,0,0,0,0.00
2013-9-5,71.1,62.5,47.8,49.9,37.0,26.1,64,40,22,30.16,29.87,0,0,0,0.00
2013-9-6,71.4,54.5,40.5,49.1,31.3,24.7,77,46,22,30.25,30.11,0,0,0,0.00
2013-9-7,76.3,58.7,44.6,45.7,36.2,28.1,73,46,21,30.11,29.87,0,0,0,0.00
2013-9-8,65.5,57.9,43.9,50.9,33.2,21.0,62,41,24,30.11,29.78,0,0,0,0.00
2013-9-9,66.6,52.9,38.3,47.2,31.7,25.3,76,48,24,30.22,30.11,0,0,0,0.00
2013-9-10,72.9,62.9,52.3,66.7,55.0,37.6,91,76,56,30.14,30.02,0,0,0,0.00
2013-9-11,96.1,80.3,69.1,81.8,64.2,52.7,90,64,28,30.08,29.96,0,0,0,0.00
2013-9-12,78.3,70.9,68.2,70.7,65.6,61.6,90,83,70,29.99,29.66,0,0,0,0.00
2013-9-13,74.3,68.3,60.4,71.0,62.9,50.6,91,83,63,29.81,29.63,0,0,0,0.00
2013-9-14,67.6,60.9,55.4,51.6,46.0,40.2,75,59,40,30.08,29.81,0,0,0,0.00
2013-9-15,73.9,60.6,48.2,57.9,43.5,34.0,81,57,25,30.16,30.05,0,0,0,0.00
2013-9-16,70.7,58.7,44.8,56.0,42.1,27.1,78,56,33,30.28,30.02,0,0,0,0.00
2013-9-17,66.9,51.1,38.3,42.2,29.8,26.7,72,47,24,30.43,30.28,0,0,0,0.00
2013-9-18,76.3,56.8,40.5,51.9,35.9,30.0,80,51,20,30.31,30.14,0,0,0,0.00
2013-9-19,79.3,59.6,45.5,56.7,39.7,31.9,81,53,21,30.16,30.05,0,0,0,10.63
2013-9-20,81.5,61.6,48.7,61.2,43.2,33.5,83,57,20,30.11,29.99,0,0,0,0.00
2013-9-21,73.0,62.9,54.1,56.7,49.8,37.5,85,65,32,30.02,29.69,0,0,0,0.00
2013-9-22,68.0,59.6,50.2,61.0,42.8,28.5,84,57,29,29.87,29.60,0,0,0,0.79
2013-9-23,60.8,50.0,42.3,30.8,28.2,25.1,59,44,26,30.02,29.87,0,0,0,0.00
2013-9-24,65.7,52.1,43.3,30.9,27.3,24.5,54,40,23,30.02,29.87,0,0,0,0.00
2013-9-25,70.5,54.3,41.4,43.2,34.2,29.0,72,49,25,29.99,29.90,0,0,0,0.00
2013-9-26,66.4,54.0,46.0,43.6,36.3,28.9,73,54,25,30.14,29.99,0,0,0,0.00
2013-9-27,63.5,53.2,46.8,48.7,41.1,36.4,77,65,38,30.28,30.14,0,0,0,0.00
2013-9-28,75.7,58.3,46.9,57.0,41.8,34.6,82,59,23,30.34,30.25,0,0,0,0.00
2013-9-29,75.6,57.6,47.3,60.2,40.5,30.1,83,58,22,30.25,30.11,0,0,0,0.00
2013-9-30,73.8,56.2,43.5,50.7,36.6,30.4,78,52,22,30.14,29.99,0,0,0,0.00